Weather History for Sturgeon Bay, WI

Change the Weather History Date:

Saturday, December 22, 2012

  Actual Average Record
Temperature  
Mean Temperature 22 °F -  
Max Temperature 26 °F 29 °F 45 °F (1918)
Min Temperature 17 °F 13 °F -13 °F (1916)
Degree Days  
Heating Degree Days 44    
Moisture  
Dew Point 15 °F    
Average Humidity 73    
Maximum Humidity 86    
Minimum Humidity 55    
Precipitation  
Precipitation 0.00 in - - ()
Sea Level Pressure  
Sea Level Pressure 30.02 in    
Wind  
Wind Speed 10 mph (West)    
Max Wind Speed 16 mph    
Max Gust Speed 21 mph    
Visibility 10 miles    
Events      
Averages and records for this station are not official NWS values.
T = Trace of Precipitation, MM = Missing Value Source: NWS Daily Summary

Daily Weather History Graph

Daily Weather History Graph

Search for Another Location

Airport:

Trip Planner

Search our weather history database for the weather conditions in past years. The results will help you decide how hot, cold, wet, or windy it might be!

Date:

Astronomy

Dec. 22, 2012 Rise Set
Actual Time 7:25 AM CST 4:12 PM CST
Civil Twilight 6:51 AM CST 4:45 PM CST
Nautical Twilight 6:14 AM CST 5:23 PM CST
Astronomical Twilight 5:38 AM CST 5:58 PM CST
Moon 12:36 PM CST (12/22) 2:01 AM CST (12/22)
Length of Visible Light 9h 54m
Length of Day
8h 47m
Waxing Gibbous, 74% of the Moon is Illuminated
Dec 22
Waxing Gibbous
Dec 28
Full
Jan 4
Last Quarter
Jan 11
New
Jan 18
First Quarter

Hourly Weather History & Observations

Time (CST) Temp. Windchill Dew Point Humidity Pressure Visibility Wind Dir Wind Speed Gust Speed Precip Events Conditions
12:15 AM 23.0 °F 9.6 °F 15.8 °F 74% 30.07 in 10.0 mi NW 16.1 mph 19.6 mph N/A   Partly Cloudy
12:35 AM 23.0 °F 10.1 °F 15.8 °F 74% 30.08 in 10.0 mi NW 15.0 mph 20.7 mph N/A   Partly Cloudy
12:55 AM 23.0 °F 10.6 °F 15.8 °F 74% 30.08 in 10.0 mi NW 13.8 mph 19.6 mph N/A   Clear
1:15 AM 23.0 °F 10.1 °F 15.8 °F 74% 30.08 in 10.0 mi NW 15.0 mph 20.7 mph N/A   Clear
1:35 AM 23.0 °F 11.7 °F 15.8 °F 74% 30.08 in 10.0 mi NW 11.5 mph - N/A   Clear
1:55 AM 23.0 °F 11.7 °F 15.8 °F 74% 30.08 in 10.0 mi NW 11.5 mph - N/A   Clear
2:15 AM 23.0 °F 12.4 °F 15.8 °F 74% 30.08 in 10.0 mi NW 10.4 mph - N/A   Clear
2:35 AM 23.0 °F 11.7 °F 15.8 °F 74% 30.08 in 10.0 mi WNW 11.5 mph - N/A   Clear
2:55 AM 23.0 °F 11.1 °F 15.8 °F 74% 30.09 in 10.0 mi NW 12.7 mph - N/A   Clear
3:15 AM 23.0 °F 11.1 °F 15.8 °F 74% 30.09 in 10.0 mi NW 12.7 mph - N/A   Clear
3:35 AM 23.0 °F 10.1 °F 15.8 °F 74% 30.10 in 10.0 mi NW 15.0 mph - N/A   Clear
3:55 AM 23.0 °F 11.7 °F 15.8 °F 74% 30.10 in 10.0 mi NW 11.5 mph - N/A   Clear
4:15 AM 23.0 °F 11.7 °F 15.8 °F 74% 30.10 in 10.0 mi NW 11.5 mph 17.3 mph N/A   Clear
4:35 AM 23.0 °F 12.4 °F 15.8 °F 74% 30.09 in 10.0 mi NW 10.4 mph - N/A   Clear
4:55 AM 23.0 °F 12.4 °F 15.8 °F 74% 30.09 in 10.0 mi NW 10.4 mph - N/A   Clear
5:15 AM 21.2 °F 9.5 °F 15.8 °F 80% 30.10 in 10.0 mi NW 11.5 mph - N/A   Clear
5:35 AM 21.2 °F 10.9 °F 15.8 °F 80% 30.10 in 10.0 mi WNW 9.2 mph 16.1 mph N/A   Clear
5:55 AM 21.2 °F 12.6 °F 15.8 °F 80% 30.10 in 10.0 mi NW 6.9 mph - N/A   Clear
6:15 AM 21.2 °F 13.6 °F 15.8 °F 80% 30.10 in 10.0 mi WNW 5.8 mph - N/A   Clear
6:35 AM 21.2 °F 12.6 °F 15.8 °F 80% 30.10 in 10.0 mi WNW 6.9 mph - N/A   Clear
6:55 AM 21.2 °F 14.9 °F 15.8 °F 80% 30.10 in 10.0 mi WNW 4.6 mph - N/A   Clear
7:15 AM 19.4 °F 12.8 °F 14.0 °F 80% 30.11 in 10.0 mi West 4.6 mph - N/A   Clear
7:35 AM 19.4 °F 14.3 °F 14.0 °F 80% 30.11 in 10.0 mi SW 3.5 mph - N/A   Clear
7:55 AM 17.6 °F 9.3 °F 14.0 °F 86% 30.10 in 10.0 mi WSW 5.8 mph - N/A   Clear
8:15 AM 17.6 °F 8.2 °F 14.0 °F 86% 30.10 in 10.0 mi WSW 6.9 mph - N/A   Clear
8:35 AM 19.4 °F 10.4 °F 15.8 °F 86% 30.10 in 10.0 mi West 6.9 mph - N/A   Clear
8:55 AM 19.4 °F 10.4 °F 15.8 °F 86% 30.09 in 10.0 mi West 6.9 mph - N/A   Clear
9:15 AM 19.4 °F 7.9 °F 15.8 °F 86% 30.09 in 10.0 mi West 10.4 mph - N/A   Clear
9:35 AM 21.2 °F 9.5 °F 15.8 °F 80% 30.09 in 10.0 mi West 11.5 mph - N/A   Clear
9:55 AM 19.4 °F 7.9 °F 14.0 °F 80% 30.08 in 10.0 mi West 10.4 mph - N/A   Clear
10:15 AM 21.2 °F 10.1 °F 15.8 °F 80% 30.08 in 10.0 mi West 10.4 mph - N/A   Clear
10:35 AM 21.2 °F 10.9 °F 15.8 °F 80% 30.07 in 10.0 mi WNW 9.2 mph - N/A   Clear
10:55 AM 21.2 °F 11.7 °F 15.8 °F 80% 30.07 in 10.0 mi West 8.1 mph - N/A   Clear
11:15 AM 23.0 °F 13.1 °F 15.8 °F 74% 30.07 in 10.0 mi West 9.2 mph - N/A   Clear
11:35 AM 23.0 °F 14.7 °F 15.8 °F 74% 30.06 in 10.0 mi WSW 6.9 mph - N/A   Clear
11:55 AM 23.0 °F 13.9 °F 17.6 °F 80% 30.05 in 10.0 mi WSW 8.1 mph - N/A   Clear
12:15 PM 24.8 °F 17.9 °F 17.6 °F 74% 30.04 in 10.0 mi West 5.8 mph - N/A   Partly Cloudy
12:35 PM 24.8 °F 16.1 °F 17.6 °F 74% 30.03 in 10.0 mi WSW 8.1 mph - N/A   Partly Cloudy
12:55 PM 24.8 °F 16.9 °F 15.8 °F 69% 30.02 in 10.0 mi WSW 6.9 mph - N/A   Partly Cloudy
1:15 PM 24.8 °F 17.9 °F 17.6 °F 74% 30.01 in 10.0 mi WSW 5.8 mph - N/A   Scattered Clouds
1:35 PM 24.8 °F 15.3 °F 17.6 °F 74% 30.00 in 10.0 mi WSW 9.2 mph - N/A   Partly Cloudy
1:55 PM 26.6 °F 17.5 °F 15.8 °F 64% 29.99 in 10.0 mi WSW 9.2 mph - N/A   Partly Cloudy
2:15 PM 26.6 °F 19.1 °F 15.8 °F 64% 29.99 in 10.0 mi WSW 6.9 mph - N/A   Partly Cloudy
2:35 PM 26.6 °F 18.2 °F 15.8 °F 64% 29.98 in 10.0 mi West 8.1 mph - N/A   Partly Cloudy
2:55 PM 26.6 °F 18.2 °F 12.2 °F 55% 29.98 in 10.0 mi WSW 8.1 mph - N/A   Mostly Cloudy
3:15 PM 26.6 °F 17.5 °F 12.2 °F 55% 29.98 in 10.0 mi WSW 9.2 mph - N/A   Overcast
3:35 PM 26.6 °F 17.5 °F 14.0 °F 59% 29.97 in 10.0 mi SW 9.2 mph - N/A   Overcast
3:55 PM 26.6 °F 18.2 °F 12.2 °F 55% 29.96 in 10.0 mi SW 8.1 mph - N/A   Overcast
4:15 PM 24.8 °F 16.1 °F 12.2 °F 59% 29.96 in 10.0 mi SW 8.1 mph - N/A   Overcast
4:35 PM 24.8 °F 16.1 °F 12.2 °F 59% 29.95 in 10.0 mi SW 8.1 mph - N/A   Overcast
4:55 PM 24.8 °F 16.1 °F 12.2 °F 59% 29.96 in 10.0 mi SW 8.1 mph - N/A   Mostly Cloudy
5:15 PM 23.0 °F 13.1 °F 10.4 °F 59% 29.95 in 10.0 mi SW 9.2 mph - N/A   Scattered Clouds
5:35 PM 23.0 °F 13.1 °F 10.4 °F 59% 29.95 in 10.0 mi SW 9.2 mph - N/A   Mostly Cloudy
5:55 PM 21.2 °F 10.9 °F 10.4 °F 63% 29.94 in 10.0 mi SW 9.2 mph - N/A   Overcast
6:15 PM 21.2 °F 10.1 °F 10.4 °F 63% 29.93 in 10.0 mi SW 10.4 mph - N/A   Overcast
6:35 PM 21.2 °F 9.5 °F 12.2 °F 68% 29.93 in 10.0 mi SW 11.5 mph 17.3 mph N/A   Mostly Cloudy
6:55 PM 21.2 °F 10.9 °F 12.2 °F 68% 29.93 in 10.0 mi SW 9.2 mph - N/A   Mostly Cloudy
7:15 PM 21.2 °F 11.7 °F 12.2 °F 68% 29.93 in 10.0 mi SW 8.1 mph - N/A   Scattered Clouds
7:35 PM 21.2 °F 13.6 °F 12.2 °F 68% 29.94 in 10.0 mi WSW 5.8 mph - N/A   Clear
7:55 PM 21.2 °F 14.9 °F 12.2 °F 68% 29.93 in 10.0 mi SW 4.6 mph - N/A   Clear
8:15 PM 21.2 °F 11.7 °F 12.2 °F 68% 29.93 in 10.0 mi WSW 8.1 mph - N/A   Clear
8:35 PM 21.2 °F 13.6 °F 12.2 °F 68% 29.93 in 10.0 mi WSW 5.8 mph - N/A   Clear
8:55 PM 21.2 °F 12.6 °F 12.2 °F 68% 29.92 in 10.0 mi WSW 6.9 mph - N/A   Partly Cloudy
9:15 PM 19.4 °F 10.4 °F 14.0 °F 80% 29.92 in 10.0 mi WSW 6.9 mph - N/A   Partly Cloudy
9:35 PM 19.4 °F 10.4 °F 14.0 °F 80% 29.91 in 10.0 mi WSW 6.9 mph - N/A   Clear
9:55 PM 21.2 °F 10.9 °F 14.0 °F 74% 29.91 in 10.0 mi WSW 9.2 mph - N/A   Clear
10:15 PM 21.2 °F 10.1 °F 14.0 °F 74% 29.90 in 10.0 mi WSW 10.4 mph - N/A   Clear
10:35 PM 21.2 °F 10.1 °F 14.0 °F 74% 29.90 in 10.0 mi WSW 10.4 mph - N/A   Clear
10:55 PM 21.2 °F 10.1 °F 14.0 °F 74% 29.90 in 10.0 mi WSW 10.4 mph - N/A   Clear
11:15 PM 21.2 °F 10.9 °F 14.0 °F 74% 29.90 in 10.0 mi WSW 9.2 mph - N/A   Clear
11:35 PM 21.2 °F 12.6 °F 15.8 °F 80% 29.90 in 10.0 mi West 6.9 mph - N/A   Clear
11:55 PM 21.2 °F 11.7 °F 15.8 °F 80% 29.90 in 10.0 mi West 8.1 mph - N/A   Clear